Zurück zum Katalog

STARLINK-36975

AktivKommunikationVLEO
NORAD 67993·PAYLOAD·🇺🇸 United States

Gestartet Feb 27, 2026 von Vandenberg Space Force Base

Loading…

Nächste Überflüge (nächste 24 Stunden)

TLE

AktuellSource: CelesTrak SupGP

Epoche: Sep 14, 2026, 15:19 UTC

1 67993C 26039H   26257.63868056 -.00026316  00000+0 -95328-3 0  2574
2 67993  43.0025  61.9077 0001828 268.5990 326.6214 15.27586899    13

Verfolge STARLINK-36975 in Echtzeit mit AllMySat

Download on the App Store